Current Version              Previous Version:    01  02  03  04  05  06  07  08  09  10  11  12  13  14  15  16  17  18  19  20  21  22  23  24  25  26  27  28  29  30  
   31  32  33  34  35  36  37  38  39  40  41  42  43  44  45  46  47  48  49  50  51  52  53  54  55  56  57  58  59  60  

[Printable]
965
ASUS44 KFWD 300915
RWRTX
NORTH TEXAS HOURLY WEATHER ROUNDUP
NATIONAL WEATHER SERVICE FORT WORTH TX
400 AM CDT THU OCT 30 2014

NOTE: "FAIR" INDICATES FEW OR NO CLOUDS BELOW 12,000 FEET WITH NO
SIGNIFICANT WEATHER AND/OR OBSTRUCTIONS TO VISIBILITY.

TXZ118-119-301000-
DALLAS/FORT WORTH METROPLEX

CITY           SKY/WX    TMP DP  RH WIND       PRES   REMARKS
DFW AIRPORT    CLEAR     55  45  68 SE5       30.13S
DALLAS LOVE    CLEAR     57  45  64 SE7       30.13S
FTW MEACHAM    CLEAR     57  46  66 S5        30.12F
DAL-EXECUTIVE  CLEAR     55  46  71 SE3       30.13S
FTW-ALLIANCE   CLEAR     51  44  77 CALM      30.12F
FTW-NAS-JRB    CLEAR     61  44  53 SE5       30.17F
FTW-SPINKS     CLEAR     53  45  74 CALM      30.14F
ARLINGTON      CLEAR     50  45  83 SE3       30.13F
GRAND PRAIRIE  CLEAR     58  49  70 CALM      30.14F
ADDISON        CLEAR     58  48  67 SE6       30.15S
MESQUITE       CLEAR     50  44  79 CALM      30.15R
LANCASTER      CLEAR     47  40  77 CALM      30.15S
$$

TXZ091>094-102>105-117-120-121-131>134-301000-
NORTH CENTRAL TEXAS

CITY           SKY/WX    TMP DP  RH WIND       PRES   REMARKS
SHRMAN/DENISON CLEAR     55  46  69 S7        30.14S
GAINESVILLE    CLEAR     51  43  74 CALM      30.15S
BOWIE          CLEAR     51  43  75 SE5       30.13S
BRIDGEPORT     CLEAR     48  44  85 CALM      30.15S
DECATUR        CLEAR     59  43  56 S10       30.13S
DENTON         CLEAR     47  42  83 CALM      30.13S
MCKINNEY       CLEAR     46  44  93 CALM      30.14S
GREENVILLE     CLEAR     45  43  93 CALM      30.15S
ROCKWALL       CLEAR     56  45  65 SE7       30.13S
TERRELL        CLEAR     50  44  80 CALM      30.15R
WAXAHACHIE     CLEAR     52  47  81 CALM      30.15S
CLEBURNE       CLEAR     55  48  76 S5        30.14F
GRANBURY       CLEAR     54  45  73 SE5       30.13F
$$

TXZ083>090-098>101-113>116-127>130-139>142-154-155-301000-
WESTERN NORTH TEXAS

CITY           SKY/WX    TMP DP  RH WIND       PRES   REMARKS
WICHITA FALLS  CLEAR     55  42  61 S13       30.10S
WF-KICKAPOO    CLEAR     51  41  69 S3        30.12S
VERNON         CLEAR     54  39  58 SE5       30.11S
ABILENE        CLEAR     60  49  66 S13       30.12F
ABILENE-DYESS  CLEAR     59  50  72 SE9       30.10F
BRECKENRIDGE   CLEAR     58  45  61 S5        30.12R
GRAHAM         CLEAR     57  45  64 SE3       30.11S
MINERAL WELLS  CLEAR     53  43  68 SE6       30.12S
STEPHENVILLE   CLEAR     54  46  75 CALM      30.15F
COMANCHE       CLEAR     55  50  83 SE3       30.13F
BROWNWOOD      CLOUDY    55  48  76 CALM      30.13S
COLEMAN        PTCLDY    59  51  75 CALM      30.12S
BRADY          CLEAR     59  54  82 SE5       30.11F
$$

TXZ143>147-156>162-174-175-301000-
CENTRAL TEXAS

CITY           SKY/WX    TMP DP  RH WIND       PRES   REMARKS
WACO           CLEAR     51  48  89 N5        30.13S
WACO-MCGREGOR  CLEAR     55  43  62 W3        30.14S
HILLSBORO      CLEAR     58  46  63 E8        30.13F
CORSICANA      CLEAR     56  48  74 SE3       30.15S
MEXIA          CLEAR     55  48  78 CALM      30.12F
HEARNE         CLEAR     55  52  87 CALM      30.13S
CAMERON        CLEAR     56  53  87 CALM      30.12S
TEMPLE         PTCLDY    55  46  71 E3        30.12S
KILLEEN        MOCLDY    61  54  78 S7        30.12F
KILLEEN-SKYLRK MOCLDY    61  48  63 CALM      30.10S
FORT HOOD      PTCLDY    61  53  75 CALM      30.12S
GATESVILLE     CLEAR     55  50  82 CALM      30.14F
HAMILTON       CLEAR     57  49  75 S7        30.13F
LAMPASAS       PTCLDY    58  54  86 CALM      30.11F
$$

TXZ095>097-106>112-122>126-135>138-148>153-164>167-301000-
EAST TEXAS

CITY           SKY/WX    TMP DP  RH WIND       PRES   REMARKS
PARIS          CLEAR     52  37  58 E3        30.15S
SULPHUR SPRNGS CLEAR     50  46  84 CALM      30.17R
MOUNT PLEASANT CLEAR     44  44 100 CALM      30.16S
MINEOLA        CLEAR     46  45  93 CALM      30.15S
TYLER          CLEAR     52  46  80 CALM      30.13S
LONGVIEW       CLEAR     49  46  90 CALM      30.13F
MARSHALL       CLEAR     48  46  92 CALM      30.16S
ATHENS         CLEAR     46  46 100 CALM      30.13S
PALESTINE      CLEAR     55  49  78 E3        30.15S
JACKSONVILLE   CLEAR     55  46  71 E5        30.15S
HENDERSON      CLEAR     46  46  99 CALM      30.14F
NACOGDOCHES    CLEAR     45  43  93 CALM      30.14S
LUFKIN         CLEAR     50  46  86 CALM      30.13S
$$

SUPPLEMENTAL OBSERVATIONS (CENTRAL)

CITY           SKY/WX    TMP DP  RH WIND       PRES   REMARKS
LAKE TEXOMA      N/A     52  46  82 CALM        N/A
CADDO GRASSLND   N/A     46  43  87 S1          N/A
PAT MAYSE LAKE   N/A     45  41  87 NW2         N/A
GREENVILLE       N/A     48  43  81 W2          N/A
CEDAR HILL       N/A     57  45  62 SE3         N/A
PALESTINE        N/A     46  45  93 CALM        N/A
LAKE LIMESTONE   N/A     52  46  82 NE2         N/A
MCGREGOR         N/A     57  48  72 SW2         N/A
TEMPLE           N/A     57  50  77 NE6         N/A
$$

SUPPLEMENTAL OBSERVATIONS (WEST)

CITY           SKY/WX    TMP DP  RH WIND       PRES   REMARKS
MILLERS CREEK    N/A     55  37  50 S5          N/A
POSSUM KINGDOM   N/A     59  45  58 SE6         N/A
LBJ GRASSLAND    N/A     57  43  58 SE6         N/A
GRANBURY         N/A     54  45  71 S5          N/A
COMANCHE         N/A     54  45  71 S3          N/A
HAMBY            N/A     61  48  63 S9          N/A
IVIE RESERVOIR   N/A     59  50  72 SE3         N/A
COLORADO BEND    N/A     59  52  77 SE5         N/A
$$

SUPPLEMENTAL OBSERVATIONS (EAST)

CITY           SKY/WX    TMP DP  RH WIND       PRES   REMARKS
CLARKSVILLE      N/A     46  43  87 CALM        N/A
TEXARKANA        N/A     39  37  93 CALM        N/A
CADDO LAKE       N/A     39  37  93 CALM        N/A
GILMER           N/A     45  41  87 CALM        N/A
HENDERSON        N/A     46  43  87 CALM        N/A
LUFKIN           N/A     48  45  87 MISG        N/A
N SABINE NF      N/A     45  41  87 MISG        N/A
S SABINE NF      N/A     50  45  81 SW1         N/A
$$

SUPPLEMENTAL OBSERVATIONS ARE A COLLECTION OF AUTOMATED INSTRUMENTS
THAT ARE MAINTAINED BY A VARIETY OF FEDERAL AND STATE AGENCIES.
CERTAIN ELEMENTS...SUCH AS HUMIDITY VALUES AND SUSTAINED WIND
SPEEDS...MAY BE APPROXIMATED.